[[{"header":{"parameterUnit":"m.s-1","parameterCategory":1,"la1":30.2991,"la2":30.254,"lo1":-89.0895,"lo2":-89.0444,"dy":0.0017,"dx":0.0017,"nx":28,"ny":28,"refTime":"2025-08-08T09:00:00:Z","depth":0,"parameterNumber":2,"parameterNumberName":"U-component_of_WINDS"},"data":[0,0,0,0,0,0,0,0,0,0,0,0,0,0,0,0,0,0,0,0,0,0,0,0,0,0,0,0,0,0,0,0,0,0,0,0,0,0,0,0,0,0,0,0,0,0,0,0,0,0,0,0,0,0,0,0,0,0,-4.9264,-4.9264,0,-4.9225,-4.9224,-4.9224,-4.9059,-4.9055,-4.9052,-4.9048,-4.901,-4.9013,-4.9015,0,0,0,0,0,0,0,0,0,0,0,0,0,-4.92,-4.9202,-4.9264,-4.9264,-4.9263,-4.9225,-4.9224,-4.9224,-4.906,-4.9055,-4.9051,-4.9046,-4.9009,-4.9012,-4.9015,0,0,0,0,0,0,0,0,0,0,0,0,0,-4.9201,-4.9203,-4.9264,-4.9177,-4.9168,-4.9225,-4.9224,-4.9224,-4.9061,-4.9055,-4.9049,-4.9044,-4.9008,-4.9012,-4.9016,-4.9154,0,0,-4.9027,-4.9029,0,0,0,0,0,0,0,0,-4.9201,-4.9204,-4.919,-4.9183,-4.9174,-4.9141,-4.9187,-4.92,-4.9062,-4.9102,-4.9048,-4.9041,-4.9058,-4.9058,-4.9063,-4.9152,-4.9151,-4.9028,-4.903,-4.9032,-4.9033,0,0,0,0,0,0,0,-4.9201,-4.9204,-4.9248,-4.919,-4.918,-4.914,-4.9134,-4.9189,-4.9113,-4.9098,-4.9086,-4.9083,-4.9053,-4.906,-4.9061,-4.915,-4.9028,-4.9031,-4.9033,-4.9035,-4.935,-4.9356,0,0,0,0,0,0,-4.9213,-4.9206,-4.925,-4.9247,-4.9174,-4.9146,-4.9139,-4.9157,-4.9112,-4.9099,-4.9088,-4.9076,-4.9056,-4.9057,-4.9059,-4.9216,-4.9032,-4.9035,-4.9037,-4.9344,-4.9351,-4.9358,0,0,0,0,0,0,-4.9213,-4.9219,-4.9251,-4.9223,-4.9224,-4.9153,-4.9175,-4.916,-4.9166,-4.9104,-4.909,-4.9109,-4.9051,-4.9054,-4.9131,-4.9212,-4.9037,-4.904,-4.9337,-4.9346,-4.9355,-4.9532,0,0,0,0,0,0,-4.9212,-4.922,-4.9271,-4.9225,-4.9226,-4.9324,-4.918,-4.9163,-4.9173,-4.9156,-4.912,-4.9109,-4.9047,-4.9126,-4.9135,-4.9214,-4.9043,-4.9329,-4.9341,-4.9352,-4.9519,-4.9546,-4.957,0,0,0,0,0,-4.921,-4.9323,-4.9274,-4.928,-4.9288,-4.9329,-4.9329,-4.9255,-4.918,-4.9231,-4.9192,-4.911,-4.9203,-4.9136,-4.9144,-4.9226,-4.9323,-4.9338,-4.9351,-4.9507,-4.9541,-4.9569,0,0,0,0,0,0,-4.938,-4.9315,-4.926,-4.9362,-4.9352,-4.9301,-4.9362,-4.9294,-4.9305,-4.9289,-4.9198,-4.9192,-4.9282,-4.9262,-4.9188,-4.9357,-4.925,-4.9266,-4.9366,-4.9397,-4.9422,-4.9424,-4.9047,0,0,0,0,0,-4.9429,-4.9466,-4.9409,-4.9504,-4.9502,-4.9434,-4.9449,-4.9393,-4.9379,-4.9374,-4.934,-4.9331,-4.9357,-4.9377,-4.9398,-4.9517,-4.9506,-4.9577,-4.9603,-4.9624,-4.9638,-4.9698,-4.9728,-4.9403,-4.9403,-4.9402,0,0,-4.9531,-4.9501,-4.953,-4.9537,-4.9523,-4.9564,-4.9431,-4.948,-4.951,-4.9382,-4.9451,-4.9428,-4.9411,-4.9509,-4.9551,-4.9495,-4.9726,-4.9642,-4.9659,-4.9661,-4.9715,-4.9746,-4.9774,-4.9412,-4.941,-4.9409,0,0,-4.9737,-4.9719,-4.9795,-4.9784,-4.9764,-4.9718,-4.9737,-4.9697,-4.9675,-4.9744,-4.9649,-4.9684,-4.9733,-4.9724,-4.9726,-4.9932,-4.9857,-4.9942,-5.0074,-5.0134,-5.0159,-5.0182,-5.0253,-5.0279,-4.9957,-4.9957,-4.9958,0,-4.9866,-4.9923,-4.9843,-4.9898,-4.9904,-4.9791,-4.9868,-4.9861,-4.985,-4.9857,-4.9796,-4.9854,-4.9835,-4.9929,-4.9979,-4.9986,-5.0004,-4.9943,-5.0162,-5.0184,-5.0203,-5.027,-5.0297,-4.9968,-4.9966,-4.9965,-4.9964,0,-5.0082,-5.0123,-5.0188,-5.0178,-5.0192,-5.0258,-5.0189,-5.0214,-5.0158,-5.0119,-5.0192,-5.0166,-5.0179,-5.0198,-5.0145,-5.0285,-5.0251,-5.0178,-5.0067,-5.0246,-5.0307,-5.0332,-4.9982,-4.9979,-4.9976,-4.9973,0,0,-5.0389,-5.0337,-5.0361,-5.0355,-5.0326,-5.0357,-5.0419,-5.0432,-5.0453,-5.0451,-5.0499,-5.0544,-5.0476,-5.0479,-5.0424,-5.0477,-5.0639,-5.0397,-5.0395,-5.044,-5.0791,-5.0843,-5.0874,-5.0591,-5.0596,-5.06,-5.0791,0,-5.0583,-5.0683,-5.0614,-5.0726,-5.0763,-5.0657,-5.0711,-5.07,-5.0667,-5.0694,-5.0657,-5.0689,-5.0598,-5.0599,-5.0647,-5.061,-5.0708,-5.0595,-5.0634,-5.0637,-5.0638,-5.0906,-5.0962,-5.1143,-5.0815,-5.0819,-5.0821,0,-5.0821,-5.0827,-5.0943,-5.0906,-5.0919,-5.0968,-5.0974,-5.1002,-5.0988,-5.096,-5.0964,-5.0896,-5.0955,-5.085,-5.0929,-5.0854,-5.0867,-5.0852,-5.0857,-5.0854,-5.0737,-5.0908,-5.12,-5.1226,-5.0859,-5.0856,-5.0853,0,-5.103,-5.1068,-5.1141,-5.1141,-5.11,-5.1137,-5.1123,-5.1102,-5.1115,-5.1122,-5.1128,-5.1143,-5.115,-5.1163,-5.1101,-5.1031,-5.1189,-5.1078,-5.1166,-5.1167,-5.12,-5.1198,-5.1494,-5.1216,-5.1215,-5.1215,-5.1214,0,-5.125,-5.1324,-5.1234,-5.1279,-5.136,-5.1282,-5.1364,-5.1338,-5.1322,-5.136,-5.1272,-5.131,-5.1228,-5.1258,-5.1211,-5.1283,-5.1288,-5.1266,-5.1252,-5.1272,-5.1274,-5.1276,-5.126,-5.1222,-5.122,-5.1219,-5.1218,0,-5.1495,-5.1438,-5.1511,-5.1468,-5.1459,-5.1519,-5.1482,-5.1523,-5.1485,-5.1535,-5.1542,-5.1483,-5.1514,-5.1454,-5.1479,-5.1447,-5.1547,-5.1515,-5.1551,-5.154,-5.1629,-5.1621,-5.1934,-5.197,-5.1672,-5.1675,-5.1678,0,-5.1637,-5.1691,-5.1654,-5.1673,-5.1663,-5.1696,-5.1708,-5.1635,-5.1651,-5.164,-5.1681,-5.1705,-5.172,-5.1775,-5.1734,-5.1752,-5.1718,-5.1827,-5.172,-5.1738,-5.1716,-5.1712,-5.1716,-5.1847,-5.1851,-5.1854,-5.1856,0,-5.1895,-5.1865,-5.1885,-5.1896,-5.1913,-5.1918,-5.1918,-5.1939,-5.1861,-5.1885,-5.1915,-5.1927,-5.1951,-5.1976,-5.1984,-5.197,-5.1901,-5.1891,-5.1912,-5.193,-5.1948,-5.1936,-5.1607,-5.1883,-5.1881,-5.1879,-5.1877,-5.1876,-5.209,-5.2133,-5.2114,-5.2139,-5.2131,-5.2133,-5.2168,-5.2135,-5.2159,-5.2172,-5.2129,-5.2169,-5.2155,-5.2159,-5.2152,-5.2183,-5.2135,-5.2165,-5.2172,-5.218,-5.2193,-5.1947,-5.2185,-5.2184,-5.2184,-5.2183,-5.2182,0,-5.2341,-5.2323,-5.2348,-5.2349,-5.237,-5.2304,-5.2301,-5.2322,-5.2358,-5.2351,-5.2367,-5.2403,-5.2427,-5.2389,-5.2407,-5.2439,-5.2408,-5.2446,-5.2441,-5.2438,-5.2237,-5.2216,-5.2471,-5.2471,-5.2471,-5.2471,-5.2471,-5.2471,-5.2473,-5.2541,-5.2509,-5.2574,-5.2556,-5.2594,-5.2597,-5.2599,-5.2592,-5.2635,-5.2654,-5.263,-5.261,-5.2626,-5.2645,-5.2634,-5.2643,-5.2692,-5.2669,-5.2481,-5.2452,-5.2425,-5.2405,-5.2695,-5.2696,-5.2867,-5.2869,-5.287]},{"header":{"parameterUnit":"m.s-1","parameterCategory":1,"la1":30.2991,"la2":30.254,"lo1":-89.0895,"lo2":-89.0444,"dy":0.0017,"dx":0.0017,"nx":28,"ny":28,"refTime":"2025-08-08T09:00:00:Z","depth":0,"parameterNumber":3,"parameterNumberName":"V-component_of_WINDS"},"data":[0,0,0,0,0,0,0,0,0,0,0,0,0,0,0,0,0,0,0,0,0,0,0,0,0,0,0,0,0,0,0,0,0,0,0,0,0,0,0,0,0,0,0,0,0,0,0,0,0,0,0,0,0,0,0,0,0,0,-0.1683,-0.1683,0,-0.1685,-0.1685,-0.1686,-0.1696,-0.1696,-0.1696,-0.1696,-0.1702,-0.1702,-0.1702,0,0,0,0,0,0,0,0,0,0,0,0,0,-0.1689,-0.1688,-0.1683,-0.1683,-0.1683,-0.1685,-0.1685,-0.1686,-0.1696,-0.1696,-0.1696,-0.1697,-0.1702,-0.1702,-0.1702,0,0,0,0,0,0,0,0,0,0,0,0,0,-0.1688,-0.1688,-0.1683,-0.1689,-0.1689,-0.1685,-0.1685,-0.1686,-0.1696,-0.1696,-0.1696,-0.1697,-0.1702,-0.1702,-0.1702,-0.1694,0,0,-0.1702,-0.1702,0,0,0,0,0,0,0,0,-0.1688,-0.1688,-0.1688,-0.1688,-0.1689,-0.1691,-0.1689,-0.1689,-0.1696,-0.1693,-0.1696,-0.1697,-0.1698,-0.1698,-0.1698,-0.1695,-0.1695,-0.1702,-0.1701,-0.1701,-0.1701,0,0,0,0,0,0,0,-0.1688,-0.1688,-0.1684,-0.1688,-0.1688,-0.1691,-0.1691,-0.1689,-0.1694,-0.1693,-0.1694,-0.1694,-0.1699,-0.1698,-0.1698,-0.1695,-0.1702,-0.1701,-0.1701,-0.1701,-0.1683,-0.1682,0,0,0,0,0,0,-0.1687,-0.1688,-0.1684,-0.1684,-0.1689,-0.1691,-0.1691,-0.169,-0.1694,-0.1695,-0.1694,-0.1695,-0.1698,-0.1698,-0.1699,-0.1689,-0.1701,-0.1701,-0.1701,-0.1683,-0.1682,-0.1682,0,0,0,0,0,0,-0.1687,-0.1687,-0.1684,-0.1686,-0.1686,-0.169,-0.1689,-0.169,-0.1689,-0.1694,-0.1695,-0.1693,-0.1699,-0.1699,-0.1694,-0.1689,-0.1701,-0.1701,-0.1684,-0.1683,-0.1682,-0.167,0,0,0,0,0,0,-0.1687,-0.1687,-0.1684,-0.1686,-0.1686,-0.168,-0.1688,-0.1689,-0.1689,-0.169,-0.1693,-0.1694,-0.1699,-0.1695,-0.1694,-0.1689,-0.1701,-0.1684,-0.1683,-0.1682,-0.1671,-0.1669,-0.1667,0,0,0,0,0,-0.1688,-0.1682,-0.1684,-0.1683,-0.1682,-0.1679,-0.1679,-0.1684,-0.1688,-0.1685,-0.1688,-0.1694,-0.1689,-0.1694,-0.1694,-0.1689,-0.1684,-0.1683,-0.1683,-0.1672,-0.1669,-0.1667,0,0,0,0,0,0,-0.1681,-0.1682,-0.1685,-0.1679,-0.1679,-0.1681,-0.1678,-0.1682,-0.1681,-0.1682,-0.1688,-0.1689,-0.1684,-0.1686,-0.1691,-0.168,-0.1688,-0.1687,-0.168,-0.1677,-0.1676,-0.1676,-0.1701,0,0,0,0,0,-0.1679,-0.1675,-0.1677,-0.1672,-0.1671,-0.1674,-0.1673,-0.1676,-0.1677,-0.1677,-0.168,-0.1681,-0.1679,-0.1678,-0.1677,-0.167,-0.1671,-0.1666,-0.1665,-0.1663,-0.1663,-0.1657,-0.1655,-0.1679,-0.1679,-0.1679,0,0,-0.1675,-0.1675,-0.1673,-0.167,-0.1671,-0.1667,-0.1675,-0.1672,-0.1669,-0.1677,-0.1673,-0.1674,-0.1675,-0.1669,-0.1667,-0.1671,-0.1656,-0.1662,-0.1661,-0.1661,-0.1656,-0.1654,-0.1652,-0.1678,-0.1678,-0.1678,0,0,-0.1665,-0.1665,-0.166,-0.1659,-0.1658,-0.166,-0.1658,-0.1659,-0.166,-0.1655,-0.166,-0.1657,-0.1655,-0.1655,-0.1655,-0.1641,-0.1646,-0.164,-0.1632,-0.1627,-0.1625,-0.1623,-0.1618,-0.1616,-0.1639,-0.1639,-0.1639,0,-0.1661,-0.1655,-0.1657,-0.1653,-0.1651,-0.1656,-0.165,-0.165,-0.1649,-0.1648,-0.1652,-0.1647,-0.1648,-0.1641,-0.1637,-0.1637,-0.1635,-0.1641,-0.1625,-0.1623,-0.1622,-0.1616,-0.1614,-0.1639,-0.1639,-0.1639,-0.1639,0,-0.1649,-0.1645,-0.1641,-0.1638,-0.1635,-0.1631,-0.1632,-0.1629,-0.1631,-0.1632,-0.1626,-0.1627,-0.1625,-0.1624,-0.1627,-0.1616,-0.1619,-0.1623,-0.1631,-0.1619,-0.1614,-0.1612,-0.1638,-0.1638,-0.1638,-0.1638,0,0,-0.1639,-0.1634,-0.1633,-0.163,-0.1628,-0.1625,-0.1619,-0.1616,-0.1613,-0.1612,-0.1607,-0.1603,-0.1606,-0.1606,-0.1608,-0.1604,-0.1591,-0.1609,-0.1609,-0.1605,-0.1579,-0.1576,-0.1574,-0.1594,-0.1593,-0.1593,-0.1579,0,-0.1629,-0.1619,-0.1619,-0.161,-0.1605,-0.1608,-0.1603,-0.1601,-0.16,-0.1597,-0.1597,-0.1594,-0.1598,-0.1598,-0.1593,-0.1594,-0.1586,-0.1595,-0.159,-0.159,-0.1591,-0.1571,-0.1569,-0.1555,-0.1577,-0.1577,-0.1576,0,-0.1618,-0.1614,-0.1603,-0.1599,-0.1597,-0.1593,-0.1588,-0.1584,-0.1581,-0.1581,-0.1579,-0.1581,-0.1575,-0.1581,-0.1573,-0.1578,-0.1576,-0.1575,-0.1575,-0.1576,-0.1583,-0.1572,-0.1551,-0.1549,-0.1574,-0.1574,-0.1574,0,-0.1611,-0.1603,-0.1595,-0.1593,-0.1588,-0.1584,-0.1582,-0.1579,-0.1576,-0.1572,-0.157,-0.1566,-0.1564,-0.156,-0.1561,-0.1566,-0.1552,-0.1559,-0.1552,-0.1552,-0.155,-0.1551,-0.153,-0.1547,-0.1547,-0.1547,-0.1547,0,-0.1601,-0.1595,-0.1591,-0.1587,-0.1579,-0.1578,-0.1571,-0.1569,-0.1566,-0.156,-0.1562,-0.1558,-0.1558,-0.1554,-0.1554,-0.1546,-0.1545,-0.1545,-0.1546,-0.1545,-0.1545,-0.1545,-0.1546,-0.1547,-0.1547,-0.1547,-0.1547,0,-0.1593,-0.159,-0.1582,-0.1576,-0.1575,-0.1569,-0.1565,-0.156,-0.1559,-0.1552,-0.155,-0.1548,-0.1542,-0.1542,-0.1536,-0.1536,-0.1526,-0.1527,-0.1527,-0.1527,-0.1521,-0.1521,-0.1499,-0.1496,-0.1515,-0.1515,-0.1515,0,-0.1588,-0.1582,-0.1575,-0.1571,-0.1568,-0.1562,-0.1558,-0.1556,-0.1552,-0.1546,-0.1542,-0.1536,-0.1531,-0.1521,-0.1519,-0.1513,-0.1515,-0.1507,-0.1514,-0.1514,-0.1515,-0.1515,-0.1515,-0.1507,-0.1506,-0.1506,-0.1506,0,-0.1578,-0.1576,-0.157,-0.1562,-0.1557,-0.1551,-0.1546,-0.1543,-0.154,-0.1535,-0.1528,-0.1524,-0.1515,-0.1509,-0.1503,-0.1501,-0.1503,-0.1503,-0.1501,-0.1502,-0.1502,-0.1502,-0.1524,-0.1504,-0.1505,-0.1505,-0.1505,-0.1505,-0.1571,-0.1565,-0.1559,-0.1551,-0.1546,-0.1541,-0.1535,-0.1532,-0.1525,-0.1518,-0.1517,-0.1509,-0.1503,-0.1495,-0.1492,-0.1486,-0.1488,-0.1486,-0.1485,-0.1485,-0.1484,-0.1501,-0.1485,-0.1485,-0.1485,-0.1485,-0.1485,0,-0.1561,-0.1556,-0.1549,-0.154,-0.1534,-0.1533,-0.1527,-0.1522,-0.1514,-0.1508,-0.1502,-0.1493,-0.1486,-0.1482,-0.1475,-0.147,-0.1471,-0.1469,-0.147,-0.1469,-0.1482,-0.1485,-0.1468,-0.1468,-0.1468,-0.1468,-0.1468,-0.1468,-0.1555,-0.1545,-0.1542,-0.153,-0.1525,-0.1516,-0.1512,-0.1506,-0.1501,-0.149,-0.1484,-0.148,-0.1475,-0.1467,-0.146,-0.1459,-0.1456,-0.1454,-0.1453,-0.1466,-0.1468,-0.147,-0.1472,-0.1453,-0.1453,-0.144,-0.144,-0.144]}]]